Content
SEND FEEDBACK

Daily
Averages
Monthly
Summary
Brazil

RIO DE JANEIRO, RIO DE JANEIRO


Home > South America > Brazil > Rio De Janeiro
Elevation: 20 feet     Latitude: 22 49S     Longitude: 043 15W

WEATHER
 
SELECT A DAY
Number of Records: 197,168;   Date Range: 6/30/96 - 11/22/14
 
SHARE

PRINT THIS DATA

[ ← Previous Day ]
WEATHER ALMANAC - OCTOBER 6, 2013
[ Next Day → ]
[ °C ]   °F
Weather ElementAverageHighLow
Temperature70.3 °F77 °F (12:00 pm)64 °F (6:00 am)
Dewpoint55.5 °F59 °F (8:00 am)50 °F (3:00 pm)
Humidity58.6 %77 % (4:00 am)29 % (3:00 pm)
Barometer30.10 in30.18 in (11:00 pm)30.04 in (1:00 am)
Wind Speed8.6 mph17.3 mph (4:00 pm)
Weather ElementAverage
Visibility7.3 mi
Wind DirectionWSW (242.1 °)

Weather ElementTotal
Precipitation---
Cooling Degree Days5.5 (Base 65)
Growing Degree Days20.5 (Base 50)
Averaged from 29 records on October 6, 2013
WEATHER CONDITIONS BREAKOUT
WIND DIRECTION BREAKOUT
WEATHER BY HOUR - OCTOBER 6, 2013
[ °C ]   °F
Local TimeTemperatureDewpointHumidityBarometerVisibilityWind DirectionWind SpeedGust SpeedPrecipitationEventsConditions
1:00 AM68.0 °F55.4 °F64 %30.04 in6.2 miSSW (210°)9.2 mphMostly Cloudy
2:00 AM68.0 °F55.4 °F64 %30.04 in6.2 miWSW (250°)8.1 mphScattered Clouds
3:00 AM66.2 °F55.4 °F68 %30.04 in6.2 miWest (270°)5.8 mphPartly Cloudy
4:00 AM64.4 °F57.2 °F77 %30.04 in6.2 miWest (260°)4.6 mphPartly Cloudy
5:00 AM64.4 °F57.2 °F77 %30.04 in6.2 miWest (280°)4.6 mphPartly Cloudy
6:00 AM64.0 °F58.0 °F74 %30.07 in9.0 miNW (320°)5.8 mphMist
6:00 AM64.4 °F57.2 °F77 %30.06 in6.2 miNW (320°)5.8 mphPartly Cloudy
7:00 AM66.2 °F57.2 °F73 %30.09 in6.2 miNNW (330°)9.2 mphScattered Clouds
8:00 AM68.0 °F59.0 °F73 %30.09 in6.2 miNNW (330°)8.1 mphScattered Clouds
9:00 AM70.0 °F56.0 °F52 %30.13 in12.0 miWNW (290°)8.1 mphMostly Cloudy
9:00 AM69.8 °F57.2 °F64 %30.12 in6.2 miWNW (290°)8.1 mphMostly Cloudy
10:00 AM71.6 °F57.2 °F60 %30.12 in6.2 miNW (310°)4.6 mphScattered Clouds
11:00 AM75.2 °F55.4 °F50 %30.12 in6.2 miWest (280°)5.8 mphScattered Clouds
12:00 PM77.0 °F51.8 °F41 %30.09 in6.2 miSW (220°)8.1 mphScattered Clouds
12:00 PM77.0 °F51.0 °F30 %30.12 in12.0 miSW (220°)8.1 mphPartly Cloudy
1:00 PM75.2 °F55.4 °F50 %30.09 in6.2 miEast (80°)8.1 mphScattered Clouds
2:00 PM77.0 °F53.6 °F44 %30.06 in6.2 miSouth (180°)11.5 mphScattered Clouds
3:00 PM76.0 °F50.0 °F29 %30.11 in12.0 miSSW (200°)12.7 mphPartly Cloudy
3:00 PM77.0 °F50.0 °F39 %30.09 in6.2 miSSW (200°)12.7 mphScattered Clouds
4:00 PM73.4 °F51.8 °F47 %30.09 in6.2 miSSW (210°)17.3 mphPartly Cloudy
5:00 PM71.6 °F53.6 °F53 %30.09 in6.2 miSSW (210°)15.0 mphScattered Clouds
6:00 PM69.8 °F55.4 °F60 %30.12 in6.2 miSSW (210°)12.7 mphPartly Cloudy
6:00 PM70.0 °F55.0 °F49 %30.12 in12.0 miSSW (210°)12.7 mphScattered Clouds
7:00 PM69.8 °F57.2 °F64 %30.12 in6.2 miSSW (200°)11.5 mphScattered Clouds
8:00 PM69.8 °F57.2 °F64 %30.15 in6.2 miSSW (210°)8.1 mphScattered Clouds
9:00 PM69.0 °F57.0 °F56 %30.17 in12.0 miSW (220°)5.8 mphScattered Clouds
9:00 PM69.8 °F57.2 °F64 %30.15 in6.2 miSW (220°)5.8 mphScattered Clouds
10:00 PM68.0 °F57.2 °F68 %30.15 in6.2 miSW (220°)5.8 mphMostly Cloudy
11:00 PM68.0 °F57.2 °F68 %30.18 in6.2 miWest (270°)4.6 mphScattered Clouds
Hourly data recorded from SBGL, located miles away from Rio De Janeiro, Rio De Janeiro







STORIES FROM OUR PARTNERS